EW6741 Weather Reports


time (UTC)temp
F
wind
direction
speed
knots
gust
knots
rain 1hr
in
rain 24hr
in
rain mn
in
humidity
%
barometer
mb
20260905184253 76 139 3.5 5.2 0.00 0.00 0.00 74 1010.1
20260905183753 76 161 1.7 2.6 0.00 0.00 0.00 74 1010.1
20260905183249 77 186 2.6 3.5 0.00 0.00 0.00 73 1010.0
20260905182748 78 107 2.6 3.5 0.00 0.00 0.00 70 1010.1
20260905182247 78 189 1.7 5.2 0.00 0.00 0.00 68 1010.2
20260905181743 77 169 3.5 5.2 0.00 0.00 0.00 72 1010.0
20260905181242 76 125 1.7 3.5 0.00 0.00 0.00 72 1010.3
20260905180737 76 159 2.6 3.5 0.00 0.00 0.00 72 1010.1
20260905180232 76 130 0.9 2.6 0.00 0.00 0.00 73 1010.3
20260905175732 76 123 0.9 3.5 0.00 0.00 0.00 72 1010.1
20260905175227 77 175 3.5 5.2 0.00 0.00 0.00 70 1010.1
20260905174722 77 195 2.6 5.2 0.00 0.00 0.00 72 1010.1
20260905174218 77 116 0.0 1.7 0.00 0.00 0.00 72 1010.3
20260905173714 76 100 0.9 1.7 0.00 0.00 0.00 70 1010.4
20260905173210 77 157 2.6 5.2 0.00 0.00 0.00 68 1010.1
20260905172709 77 178 1.7 2.6 0.00 0.00 0.00 68 1010.1
20260905172209 78 129 0.9 1.7 0.00 0.00 0.00 64 1010.2
20260905171704 79 120 0.0 0.9 0.00 0.00 0.00 63 1010.5
20260905171201 80 131 0.0 0.0 0.00 0.00 0.00 59 1010.4
20260905170658 79 72 0.0 0.9 0.00 0.00 0.00 60 1010.1
20260905170157 79 330 1.7 2.6 0.00 0.00 0.00 60 1010.0
20260905165657 79 34 0.9 1.7 0.00 0.00 0.00 59 1010.2
20260905165153 81 117 0.9 3.5 0.00 0.00 0.00 58 1010.1
20260905164647 81 92 0.9 1.7 0.00 0.00 0.00 57 1010.2
20260905164147 80 325 2.6 3.5 0.00 0.00 0.00 57 1010.2
20260905163643 80 12 1.7 2.6 0.00 0.00 0.00 57 1009.9
20260905163139 80 207 1.7 1.7 0.00 0.00 0.00 60 1010.1
20260905162635 78 325 1.7 3.5 0.00 0.00 0.00 61 1010.4
20260905162135 78 359 1.7 3.5 0.00 0.00 0.00 62 1010.3
20260905161635 79 97 0.9 1.7 0.00 0.00 0.00 59 1010.2
20260905161132 79 341 1.7 3.5 0.00 0.00 0.00 60 1010.1
20260905160627 79 325 2.6 3.5 0.00 0.00 0.00 61 1010.0
20260905160127 79 338 0.9 1.7 0.00 0.00 0.00 64 1010.1
20260905155626 78 225 0.9 5.2 0.00 0.00 0.00 64 1010.2
20260905155126 77 82 0.9 1.7 0.00 0.00 0.00 66 1010.3
20260905154626 78 122 0.0 1.7 0.00 0.00 0.00 67 1010.0
20260905154121 78 93 0.9 5.2 0.00 0.00 0.00 67 1010.1
20260905153617 78 292 0.9 1.7 0.00 0.00 0.00 67 1010.3
20260905153112 78 110 0.0 5.2 0.00 0.00 0.00 68 1010.3
20260905152607 77 310 2.6 3.5 0.00 0.00 0.00 67 1010.4
20260905152102 77 69 0.0 1.7 0.00 0.00 0.00 69 1010.4
20260905151557 77 60 1.7 2.6 0.00 0.00 0.00 68 1010.4
20260905151052 77 91 0.0 2.6 0.00 0.00 0.00 68 1010.3
20260905150548 78 126 0.9 2.6 0.00 0.00 0.00 68 1010.3
20260905150046 76 332 0.9 3.5 0.00 0.00 0.00 68 1010.4
20260905145544 76 1 1.7 6.1 0.00 0.00 0.00 69 1010.6
20260905145044 77 315 1.7 2.6 0.00 0.00 0.00 69 1010.5
20260905144539 77 130 0.9 1.7 0.00 0.00 0.00 70 1010.4
20260905144038 76 27 0.9 2.6 0.00 0.00 0.00 70 1010.2
20260905143537 76 68 3.5 5.2 0.00 0.00 0.00 69 1010.1
20260905143033 76 292 2.6 7.0 0.00 0.00 0.00 69 1010.1
20260905142531 75 69 3.5 5.2 0.00 0.00 0.00 70 1010.3
20260905142027 75 76 0.9 2.6 0.00 0.00 0.00 71 1010.3
20260905141521 75 71 0.9 3.5 0.00 0.00 0.00 71 1010.6
20260905141018 75 242 1.7 2.6 0.00 0.00 0.00 70 1010.5
20260905140512 74 354 0.9 6.1 0.00 0.00 0.00 72 1010.3
20260905140011 74 300 3.5 5.2 0.00 0.00 0.00 72 1010.3
20260905135507 75 298 0.9 2.6 0.00 0.00 0.00 71 1010.6
20260905135001 75 134 0.0 1.7 0.00 0.00 0.00 73 1010.3
20260905134501 73 21 0.9 2.6 0.00 0.00 0.00 74 1010.2
20260905134000 72 139 1.7 2.6 0.00 0.00 0.00 75 1010.6
20260905133456 72 64 0.9 2.6 0.00 0.00 0.00 75 1010.5
20260905132955 73 99 0.0 5.2 0.00 0.00 0.00 73 1010.4
20260905132450 73 133 0.9 3.5 0.00 0.00 0.00 74 1010.6
20260905131945 73 73 2.6 5.2 0.00 0.00 0.00 74 1010.5
20260905131441 74 334 0.9 6.1 0.00 0.00 0.00 73 1010.8
20260905130936 73 119 0.9 1.7 0.00 0.00 0.00 75 1010.6
20260905130435 71 96 1.7 1.7 0.00 0.00 0.00 77 1010.9
20260905125935 71 127 0.9 1.7 0.00 0.00 0.00 78 1010.8
20260905125430 71 285 0.9 5.2 0.00 0.00 0.00 77 1010.6
20260905124926 71 60 0.0 0.9 0.00 0.00 0.00 78 1010.7
20260905124422 70 115 0.9 2.6 0.00 0.00 0.00 79 1010.7
20260905123922 69 121 0.0 1.7 0.00 0.00 0.00 81 1010.8
20260905123419 68 86 0.0 1.7 0.00 0.00 0.00 82 1010.9
20260905122914 68 121 0.0 1.7 0.00 0.00 0.00 82 1010.9
20260905122413 67 124 0.0 0.9 0.00 0.00 0.00 83 1010.8
20260905121909 68 219 0.9 2.6 0.00 0.00 0.00 82 1010.5
20260905121404 68 70 0.9 5.2 0.00 0.00 0.00 82 1010.7
20260905120904 69 12 0.9 2.6 0.00 0.00 0.00 81 1010.6
20260905120403 68 10 0.0 1.7 0.00 0.00 0.00 82 1010.9
20260905115859 68 33 2.6 3.5 0.00 0.00 0.00 82 1010.8
20260905115358 68 54 0.0 0.9 0.00 0.00 0.00 82 1010.7
20260905114853 68 275 0.9 1.7 0.00 0.00 0.00 82 1010.4
20260905114352 67 286 1.7 2.6 0.00 0.00 0.00 83 1010.4
20260905113851 66 127 1.7 2.6 0.00 0.00 0.00 85 1010.2
20260905113347 65 99 1.7 1.7 0.00 0.00 0.00 87 1010.2
20260905112842 65 120 0.9 3.5 0.00 0.00 0.00 88 1010.2
20260905112337 64 101 0.0 0.0 0.00 0.00 0.00 88 1010.1
20260905111832 64 25 0.0 0.0 0.00 0.00 0.00 89 1010.4
20260905111327 64 84 0.0 0.0 0.00 0.00 0.00 89 1010.3
20260905110827 64 46 0.0 0.0 0.00 0.00 0.00 89 1009.9
20260905110326 64 99 0.0 0.0 0.00 0.00 0.00 89 1009.9
20260905105822 64 116 0.0 0.0 0.00 0.00 0.00 89 1009.9
20260905105321 64 98 0.0 0.0 0.00 0.00 0.00 89 1009.9
20260905104815 64 79 0.0 0.0 0.00 0.00 0.00 88 1009.8
20260905104312 64 50 0.0 0.9 0.00 0.00 0.00 88 1009.8
20260905103811 64 118 0.0 0.9 0.00 0.00 0.00 88 1009.9
20260905103306 64 138 0.9 1.7 0.00 0.00 0.00 88 1010.0
20260905102802 64 81 0.0 0.0 0.00 0.00 0.00 88 1010.0
20260905102259 64 89 0.0 0.9 0.00 0.00 0.00 88 1009.7
20260905101758 64 129 0.0 1.7 0.00 0.00 0.00 88 1009.8
20260905101257 64 109 0.0 0.0 0.00 0.00 0.00 88 1009.6
20260905100752 64 103 0.0 0.0 0.00 0.00 0.00 87 1009.5
20260905100248 64 111 0.0 0.0 0.00 0.00 0.00 87 1009.5
20260905095747 64 78 0.0 0.0 0.00 0.00 0.00 87 1009.7
20260905095247 64 111 0.0 0.9 0.00 0.00 0.00 87 1009.6
20260905094741 64 117 0.0 0.9 0.00 0.00 0.00 87 1009.8
20260905094237 64 23 0.0 1.7 0.00 0.00 0.00 86 1009.6
20260905093736 64 357 0.0 0.9 0.00 0.00 0.00 86 1009.4
20260905093232 65 335 0.9 1.7 0.00 0.00 0.00 86 1009.6
20260905092727 65 119 0.0 2.6 0.00 0.00 0.00 86 1009.5
20260905092223 65 117 0.0 0.9 0.00 0.00 0.00 85 1009.4
20260905091722 65 90 0.0 0.9 0.00 0.00 0.00 85 1009.7
20260905091218 65 100 0.0 0.9 0.00 0.00 0.00 85 1009.5
20260905090716 66 113 0.0 0.9 0.00 0.00 0.00 84 1009.5
20260905090213 66 174 0.9 1.7 0.00 0.00 0.00 84 1009.6
20260905085711 66 154 0.9 2.6 0.00 0.00 0.00 84 1009.5
20260905085207 66 337 0.9 1.7 0.00 0.00 0.00 84 1009.4
20260905084706 66 123 0.9 0.9 0.00 0.00 0.00 84 1009.6
20260905084206 66 253 0.9 2.6 0.00 0.00 0.00 84 1009.4
20260905083701 66 91 0.9 1.7 0.00 0.00 0.00 84 1009.4
20260905083157 66 65 0.9 1.7 0.00 0.00 0.00 84 1009.6
20260905082653 66 61 0.0 1.7 0.00 0.00 0.00 83 1009.7
20260905082149 66 42 1.7 1.7 0.00 0.00 0.00 83 1009.6
20260905081649 67 92 0.0 0.9 0.00 0.00 0.00 83 1009.7
20260905081144 67 69 0.9 0.9 0.00 0.00 0.00 83 1009.5
20260905080643 67 17 0.0 1.7 0.00 0.00 0.00 82 1009.9
20260905080143 67 54 0.0 0.9 0.00 0.00 0.00 82 1009.6
20260905075643 68 122 0.0 1.7 0.00 0.00 0.00 81 1009.6
20260905075142 68 113 0.9 1.7 0.00 0.00 0.00 81 1009.6
20260905074641 68 128 0.0 0.0 0.00 0.00 0.00 81 1009.6
20260905074137 68 76 0.9 1.7 0.00 0.00 0.00 80 1009.4
20260905073632 68 111 0.0 0.9 0.00 0.00 0.00 80 1009.5
20260905073128 68 131 0.0 1.7 0.00 0.00 0.00 80 1009.5
20260905072627 68 345 1.7 1.7 0.00 0.00 0.00 80 1009.5
20260905072122 68 2 1.7 2.6 0.00 0.00 0.00 80 1009.5
20260905071619 68 121 0.9 2.6 0.00 0.00 0.00 81 1009.5
20260905071114 68 72 0.9 2.6 0.00 0.00 0.00 81 1009.6
20260905070609 68 59 0.0 1.7 0.00 0.00 0.00 80 1009.6
20260905070105 68 354 1.7 3.5 0.00 0.00 0.00 81 1009.6
20260905065603 68 111 0.0 1.7 0.00 0.00 0.00 81 1009.7
20260905065058 68 29 0.9 5.2 0.00 0.00 0.00 81 1009.4
20260905064559 68 40 1.7 1.7 0.00 0.00 0.00 81 1009.7
20260905064054 68 124 0.0 0.0 0.00 0.00 0.00 81 1009.8
20260905063553 68 119 0.0 0.9 0.00 0.00 0.00 81 1009.8
20260905063050 68 68 0.0 0.9 0.00 0.00 0.00 81 1009.8
20260905062545 68 121 0.0 0.9 0.00 0.00 0.00 81 1009.7
20260905062044 68 114 0.0 1.7 0.00 0.00 0.00 81 1009.7
20260905061540 68 68 0.9 3.5 0.00 0.00 0.00 81 1010.0
20260905061038 68 138 0.9 1.7 0.00 0.00 0.00 80 1010.1
20260905060535 68 109 0.0 0.9 0.00 0.00 0.00 80 1010.1
20260905060030 69 109 0.9 1.7 0.00 0.00 0.00 80 1010.0
20260905055529 69 99 0.0 0.9 0.00 0.00 0.00 79 1010.2
20260905055024 69 63 1.7 1.7 0.00 0.00 0.00 79 1010.2
20260905054520 69 129 1.7 2.6 0.00 0.00 0.00 78 1010.2
20260905054015 69 253 0.0 1.7 0.00 0.00 0.00 78 1010.1
20260905053509 69 129 0.0 1.7 0.00 0.00 0.00 78 1010.2
20260905053005 69 286 1.7 2.6 0.00 0.00 0.00 78 1010.2
20260905052504 69 121 0.9 0.9 0.00 0.00 0.00 78 1010.2
20260905052004 70 112 0.9 1.7 0.00 0.00 0.00 78 1010.5
20260905051459 69 81 0.9 2.6 0.00 0.00 0.00 78 1010.5
20260905050957 69 46 0.9 2.6 0.00 0.00 0.00 78 1010.5
20260905050452 69 34 0.9 2.6 0.00 0.00 0.00 78 1010.5
20260905045948 69 8 0.9 1.7 0.00 0.00 0.00 78 1010.6
20260905045443 69 93 0.0 1.7 0.00 0.00 0.00 78 1010.7
20260905044939 69 107 0.0 0.9 0.00 0.00 0.00 79 1010.9
20260905044433 69 147 0.9 0.9 0.00 0.00 0.00 79 1010.9
20260905043933 70 108 0.9 1.7 0.00 0.00 0.00 79 1010.8
20260905043432 70 108 0.0 2.6 0.00 0.00 0.00 78 1010.8
20260905042927 70 113 0.9 2.6 0.00 0.00 0.00 78 1010.7
20260905042421 70 22 0.9 1.7 0.00 0.00 0.00 78 1010.8
20260905041916 70 316 0.9 3.5 0.00 0.00 0.00 77 1010.9
20260905041413 70 326 1.7 1.7 0.00 0.00 0.00 77 1010.7
20260905040907 70 24 0.9 1.7 0.00 0.00 0.00 77 1010.9
20260905040407 70 16 1.7 2.6 0.00 0.00 0.00 78 1010.8
20260905035906 69 79 0.9 1.7 0.00 0.34 0.34 79 1010.8
20260905035401 69 118 0.0 1.7 0.00 0.34 0.34 82 1010.8
20260905034858 68 106 0.0 0.0 0.00 0.34 0.34 85 1010.7
20260905034353 68 105 0.0 0.0 0.00 0.34 0.34 87 1010.9
20260905033851 68 120 0.0 0.0 0.00 0.34 0.34 88 1010.8
20260905033347 68 117 0.0 0.0 0.00 0.34 0.34 88 1010.7
20260905032846 68 120 0.0 0.0 0.00 0.34 0.34 88 1010.8
20260905032342 68 122 0.0 0.0 0.00 0.34 0.34 88 1010.9
20260905031837 68 121 0.0 0.0 0.00 0.34 0.34 88 1011.0
20260905031333 68 121 0.0 0.0 0.00 0.34 0.34 88 1010.7
20260905030828 68 122 0.0 0.0 0.00 0.34 0.34 88 1010.9
20260905030324 68 120 0.0 0.0 0.00 0.34 0.34 88 1010.6
20260905025822 69 118 0.0 0.0 0.00 0.34 0.34 88 1010.9
20260905025318 69 115 0.0 0.0 0.00 0.34 0.34 87 1011.0
20260905024815 69 119 0.0 0.0 0.00 0.34 0.34 87 1010.8
20260905024310 69 126 0.0 0.0 0.00 0.34 0.34 86 1010.7
20260905023805 69 114 0.0 0.0 0.00 0.34 0.34 86 1010.7
20260905023300 70 111 0.0 0.0 0.00 0.34 0.34 86 1010.7
20260905022759 70 90 0.0 0.0 0.00 0.34 0.34 85 1010.7
20260905022255 70 114 0.0 0.0 0.00 0.34 0.34 85 1010.7
20260905021754 70 115 0.0 0.0 0.00 0.34 0.34 85 1011.0
20260905021249 70 78 0.0 0.0 0.00 0.34 0.34 85 1011.0
20260905020744 70 84 0.0 0.0 0.00 0.34 0.34 85 1011.0
20260905020239 70 99 0.0 0.0 0.00 0.34 0.34 84 1010.9
20260905015738 70 116 0.0 0.0 0.00 0.34 0.34 84 1010.7
20260905015232 71 123 0.0 0.9 0.00 0.34 0.34 84 1010.9
20260905014731 71 113 0.0 0.9 0.00 0.34 0.34 83 1010.5
20260905014227 71 108 0.0 1.7 0.00 0.34 0.34 83 1010.9
20260905013722 71 112 0.0 0.0 0.00 0.34 0.34 83 1010.5
20260905013219 71 70 0.0 0.9 0.00 0.34 0.34 82 1010.8
20260905012714 72 115 0.0 0.0 0.00 0.34 0.34 82 1010.8
20260905012209 72 108 0.0 0.0 0.00 0.34 0.34 81 1010.7
20260905011706 72 95 0.0 0.0 0.00 0.34 0.34 81 1010.8
20260905011201 72 120 0.0 0.0 0.00 0.34 0.34 81 1011.0
20260905010701 72 118 0.0 0.0 0.00 0.34 0.34 81 1010.8
20260905010157 72 106 0.0 0.0 0.00 0.34 0.34 81 1011.0
20260905005653 72 104 0.0 0.0 0.00 0.34 0.34 81 1010.7
20260905005149 73 110 0.0 0.0 0.00 0.34 0.34 81 1010.8
20260905004643 73 116 0.0 0.0 0.00 0.34 0.34 80 1010.9
20260905004138 73 109 0.0 0.0 0.00 0.34 0.34 80 1010.9
20260905003634 73 120 0.0 0.0 0.00 0.34 0.34 79 1010.9
20260905003129 73 128 0.0 0.0 0.00 0.34 0.34 79 1010.9
20260905002625 73 120 0.0 0.0 0.00 0.34 0.34 79 1010.9
20260905002120 73 111 0.0 0.0 0.00 0.34 0.34 79 1010.6
20260905001615 73 123 0.0 0.0 0.00 0.34 0.34 78 1010.8
20260905001114 74 119 0.0 0.0 0.00 0.34 0.34 78 1010.8
20260905000610 74 120 0.0 0.0 0.00 0.34 0.34 77 1010.6
20260905000106 74 123 0.0 0.0 0.00 0.34 0.34 76 1010.6
20260904235606 75 123 0.0 0.0 0.00 0.34 0.34 76 1010.6
20260904235105 75 102 0.0 0.0 0.00 0.34 0.34 75 1010.5
20260904234600 75 112 0.0 0.0 0.00 0.34 0.34 75 1010.4
20260904234056 75 115 0.0 0.0 0.00 0.34 0.34 75 1010.5
20260904233556 76 117 0.0 0.0 0.00 0.34 0.34 74 1010.6
20260904233052 76 113 0.0 0.0 0.00 0.34 0.34 72 1010.4
20260904232548 77 113 0.0 0.0 0.00 0.34 0.34 71 1010.3
20260904232045 77 115 0.0 0.0 0.00 0.34 0.34 70 1010.3
20260904231540 77 113 0.0 0.0 0.00 0.34 0.34 70 1010.5
20260904231035 77 112 0.0 0.0 0.00 0.34 0.34 70 1010.6
20260904230534 78 107 0.0 0.9 0.00 0.34 0.34 69 1010.6
20260904230030 78 129 0.9 1.7 0.00 0.34 0.34 69 1010.4
20260904225527 78 107 0.9 1.7 0.00 0.34 0.34 68 1010.6
20260904225027 78 117 0.0 0.0 0.00 0.34 0.34 68 1010.3
20260904224522 78 104 0.0 0.9 0.00 0.34 0.34 67 1010.6
20260904224017 79 94 0.0 0.0 0.00 0.34 0.34 67 1010.6
20260904223516 79 94 0.9 1.7 0.00 0.34 0.34 66 1010.5
20260904223012 79 28 0.0 0.0 0.00 0.34 0.34 66 1010.6
20260904222507 79 96 0.0 0.0 0.00 0.34 0.34 65 1010.5
20260904222002 80 132 0.0 0.9 0.00 0.34 0.34 65 1010.3
20260904221456 80 125 0.0 0.0 0.00 0.34 0.34 64 1010.4
20260904220952 80 59 0.9 1.7 0.00 0.34 0.34 63 1010.5
20260904220451 80 105 0.0 0.9 0.00 0.34 0.34 63 1010.6
20260904215946 80 100 0.9 3.5 0.00 0.34 0.34 63 1010.5
20260904215441 81 105 1.7 1.7 0.00 0.34 0.34 62 1010.0
20260904214937 81 97 0.0 1.7 0.00 0.34 0.34 61 1010.4
20260904214432 81 45 1.7 2.6 0.00 0.34 0.34 62 1010.4
20260904213927 81 113 0.0 0.0 0.00 0.34 0.34 63 1010.3
20260904213421 81 36 0.0 1.7 0.00 0.34 0.34 62 1010.3
20260904212917 82 4 0.9 2.6 0.00 0.34 0.34 61 1010.3
20260904212416 82 94 0.0 3.5 0.00 0.34 0.34 60 1010.3
20260904211912 82 145 0.0 1.7 0.00 0.34 0.34 60 1010.5
20260904211407 82 197 0.9 2.6 0.00 0.34 0.34 58 1010.4
20260904210902 82 10 1.7 2.6 0.00 0.34 0.34 58 1010.3
20260904210401 82 42 1.7 2.6 0.00 0.34 0.34 59 1010.4
20260904205857 83 107 0.9 3.5 0.00 0.34 0.34 59 1010.4
20260904205353 83 99 0.9 2.6 0.00 0.34 0.34 57 1010.5
20260904204849 82 349 0.9 7.0 0.00 0.34 0.34 57 1010.5
20260904204345 82 137 0.9 1.7 0.00 0.34 0.34 57 1010.5
20260904203841 82 23 1.7 3.5 0.00 0.34 0.34 57 1010.5
20260904203337 84 175 1.7 6.1 0.00 0.34 0.34 55 1010.4
20260904202832 84 127 0.9 3.5 0.00 0.34 0.34 57 1010.3
20260904202329 84 145 1.7 2.6 0.00 0.34 0.34 57 1010.5
20260904201825 83 47 1.7 1.7 0.00 0.34 0.34 56 1010.3
20260904201324 85 12 1.7 5.2 0.00 0.34 0.34 55 1010.6
20260904200820 84 110 0.9 1.7 0.00 0.34 0.34 56 1010.5
20260904200318 85 325 3.5 6.1 0.00 0.34 0.34 54 1010.6
20260904195819 86 307 2.6 5.2 0.00 0.34 0.34 53 1010.4
20260904195317 85 26 1.7 3.5 0.00 0.34 0.34 56 1010.2
20260904194812 85 340 1.7 2.6 0.00 0.34 0.34 55 1010.4
20260904194311 84 151 0.0 0.0 0.00 0.34 0.34 56 1010.4
20260904193807 84 3 1.7 2.6 0.00 0.34 0.34 56 1010.5
20260904193302 84 356 1.7 3.5 0.00 0.34 0.34 54 1010.6
20260904192757 84 346 3.5 5.2 0.00 0.34 0.34 54 1010.5
20260904192252 84 106 1.7 7.0 0.00 0.34 0.34 55 1010.8
20260904191749 84 89 2.6 3.5 0.00 0.34 0.34 54 1010.7
20260904191245 83 351 4.3 8.7 0.00 0.34 0.34 55 1010.8
20260904190742 83 339 3.5 6.1 0.00 0.34 0.34 56 1011.0
20260904190237 82 51 1.7 5.2 0.00 0.34 0.34 58 1011.0
20260904185733 82 22 0.9 1.7 0.00 0.34 0.34 59 1010.8
20260904185228 82 111 1.7 5.2 0.00 0.34 0.34 57 1010.8
20260904184726 82 268 2.6 3.5 0.00 0.34 0.34 56 1010.7